Hourly Weather Thimphu

Today, 24 September, Thursday

Time Temperature Precipitation Wind Pressure Humidity
00:00 +10°C° 0 mm 0 mps 526 mmHg 93%
01:00 +10°C° 0.1 mm 0 mps 525 mmHg 93%
02:00 +10°C° 0.1 mm 0 mps 525 mmHg 93%
03:00 +10°C° 0.1 mm 0 mps 525 mmHg 93%
04:00 +10°C° 0.1 mm 0 mps 525 mmHg 93%
05:00 +10°C° 0.1 mm 0 mps 525 mmHg 93%
06:00 +11°C° 0 mm 0 mps 525 mmHg 98%
07:00 +11°C° 0.2 mm 0 mps 526 mmHg 97%
08:00 +11°C° 0.2 mm 0 mps 526 mmHg 96%
09:00 +12°C° 0.2 mm 0 mps 527 mmHg 96%
10:00 +12°C° 0.2 mm 0 mps 527 mmHg 94%
11:00 +14°C° 0.2 mm 1 mps 527 mmHg 92%
12:00 +15°C° 0 mm 1 mps 527 mmHg 89%
13:00 +15°C° 0.5 mm 1 mps 527 mmHg 90%
14:00 +15°C° 0.5 mm 1 mps 526 mmHg 91%
15:00 +14°C° 0.5 mm 1 mps 525 mmHg 92%
16:00 +14°C° 0.3 mm 1 mps 525 mmHg 94%
17:00 +13°C° 0.3 mm 1 mps 525 mmHg 95%
18:00 +12°C° 0 mm 0 mps 525 mmHg 98%
19:00 +12°C° 0.2 mm 0 mps 525 mmHg 97%
20:00 +11°C° 0.2 mm 0 mps 525 mmHg 97%
21:00 +11°C° 0.2 mm 0 mps 525 mmHg 96%
22:00 +11°C° 0.3 mm 0 mps 525 mmHg 96%
23:00 +11°C° 0.3 mm 0 mps 525 mmHg 97%

Tomorrow, 25 September, Friday

Time Temperature Precipitation Wind Pressure Humidity
00:00 +11°C° 0.3 mm 0 mps 525 mmHg 97%
01:00 +11°C° 0.3 mm 0 mps 524 mmHg 97%
02:00 +11°C° 0.3 mm 0 mps 524 mmHg 97%
03:00 +11°C° 0.3 mm 0 mps 524 mmHg 97%
04:00 +11°C° 0.4 mm 0 mps 524 mmHg 97%
05:00 +11°C° 0.4 mm 0 mps 524 mmHg 97%
06:00 +11°C° 0.4 mm 0 mps 524 mmHg 98%
07:00 +11°C° 0.6 mm 0 mps 524 mmHg 97%
08:00 +12°C° 0.6 mm 0 mps 525 mmHg 96%
09:00 +12°C° 0.6 mm 0 mps 525 mmHg 95%
10:00 +12°C° 0.4 mm 0 mps 525 mmHg 95%
11:00 +12°C° 0.4 mm 0 mps 525 mmHg 95%
12:00 +12°C° 0.4 mm 0 mps 525 mmHg 96%
13:00 +12°C° 0.7 mm 0 mps 524 mmHg 96%
14:00 +13°C° 0.7 mm 1 mps 524 mmHg 97%
15:00 +13°C° 0.7 mm 1 mps 523 mmHg 97%
16:00 +12°C° 0.4 mm 0 mps 523 mmHg 98%
17:00 +12°C° 0.4 mm 0 mps 523 mmHg 98%
18:00 +11°C° 0.4 mm 0 mps 523 mmHg 98%
19:00 +11°C° 0.3 mm 0 mps 524 mmHg 98%
20:00 +11°C° 0.3 mm 0 mps 524 mmHg 98%
21:00 +11°C° 0.3 mm 0 mps 524 mmHg 98%
22:00 +11°C° 0.6 mm 0 mps 524 mmHg 98%
23:00 +11°C° 0.6 mm 0 mps 524 mmHg 98%

Day after tomorrow, 26 September, Saturday

Time Temperature Precipitation Wind Pressure Humidity
00:00 +11°C° 0.6 mm 0 mps 524 mmHg 99%
01:00 +11°C° 1.3 mm 0 mps 524 mmHg 99%
02:00 +11°C° 1.3 mm 0 mps 524 mmHg 99%
03:00 +11°C° 1.3 mm 0 mps 523 mmHg 99%
04:00 +11°C° 0.8 mm 0 mps 523 mmHg 99%
05:00 +11°C° 0.8 mm 0 mps 523 mmHg 99%
06:00 +11°C° 0.8 mm 0 mps 523 mmHg 98%
07:00 +11°C° 0.3 mm 0 mps 524 mmHg 97%
08:00 +13°C° 0.3 mm 1 mps 525 mmHg 96%
09:00 +13°C° 0.3 mm 1 mps 525 mmHg 94%
10:00 +14°C° 0.5 mm 1 mps 526 mmHg 91%
11:00 +15°C° 0.5 mm 2 mps 526 mmHg 87%
12:00 +16°C° 0.5 mm 2 mps 526 mmHg 84%
13:00 +15°C° 0.6 mm 2 mps 526 mmHg 85%
14:00 +15°C° 0.6 mm 2 mps 525 mmHg 87%
15:00 +15°C° 0.6 mm 2 mps 524 mmHg 89%
16:00 +14°C° 0.5 mm 1 mps 524 mmHg 92%
17:00 +13°C° 0.5 mm 1 mps 524 mmHg 95%
18:00 +12°C° 0.5 mm 1 mps 523 mmHg 98%
19:00 +12°C° 0.3 mm 1 mps 524 mmHg 98%
20:00 +11°C° 0.3 mm 0 mps 524 mmHg 98%
21:00 +11°C° 0.3 mm 0 mps 525 mmHg 98%
22:00 +10°C° 0.1 mm 0 mps 525 mmHg 97%
23:00 +10°C° 0.1 mm 0 mps 525 mmHg 97%

27 September, Sunday

Time Temperature Precipitation Wind Pressure Humidity
00:00 +10°C° 0.1 mm 0 mps 524 mmHg 96%
01:00 +10°C° 0.1 mm 0 mps 524 mmHg 96%
02:00 +10°C° 0.1 mm 0 mps 524 mmHg 96%
03:00 +10°C° 0.1 mm 0 mps 524 mmHg 96%
04:00 +10°C° 0.6 mm 0 mps 524 mmHg 97%
05:00 +10°C° 0.6 mm 0 mps 524 mmHg 97%
06:00 +10°C° 0.6 mm 0 mps 524 mmHg 97%
07:00 +10°C° 0.4 mm 0 mps 525 mmHg 97%
08:00 +11°C° 0.4 mm 0 mps 525 mmHg 96%
09:00 +11°C° 0.4 mm 0 mps 525 mmHg 96%
10:00 +11°C° 0.2 mm 0 mps 526 mmHg 94%
11:00 +12°C° 0.2 mm 0 mps 526 mmHg 92%
12:00 +14°C° 0.2 mm 1 mps 526 mmHg 90%
13:00 +14°C° 0.5 mm 1 mps 526 mmHg 87%
14:00 +15°C° 0.5 mm 1 mps 526 mmHg 85%
15:00 +16°C° 0.5 mm 2 mps 526 mmHg 83%
16:00 +14°C° 0.4 mm 1 mps 525 mmHg 88%
17:00 +13°C° 0.4 mm 1 mps 524 mmHg 93%
18:00 +12°C° 0.4 mm 1 mps 524 mmHg 98%
19:00 +11°C° 0.1 mm 1 mps 524 mmHg 98%
20:00 +10°C° 0.1 mm 0 mps 524 mmHg 97%
21:00 +10°C° 0.1 mm 0 mps 525 mmHg 97%
22:00 +10°C° 0 mm 0 mps 525 mmHg 97%
23:00 +10°C° 0 mm 0 mps 525 mmHg 96%

28 September, Monday

Time Temperature Precipitation Wind Pressure Humidity
00:00 +10°C° 0 mm 0 mps 525 mmHg 95%
01:00 +9°C° 0 mm 0 mps 524 mmHg 95%
02:00 +9°C° 0 mm 0 mps 524 mmHg 94%
03:00 +9°C° 0 mm 0 mps 524 mmHg 93%
04:00 +8°C° 0 mm 0 mps 524 mmHg 92%
05:00 +9°C° 0 mm 1 mps 524 mmHg 91%
06:00 +9°C° 0 mm 1 mps 524 mmHg 90%
07:00 +11°C° 0 mm 1 mps 525 mmHg 82%
08:00 +14°C° 0 mm 1 mps 527 mmHg 75%
09:00 +18°C° 0 mm 1 mps 529 mmHg 67%
10:00 +19°C° 0.1 mm 1 mps 529 mmHg 62%
11:00 +19°C° 0.1 mm 2 mps 529 mmHg 57%
12:00 +20°C° 0.1 mm 2 mps 530 mmHg 53%
13:00 +19°C° 0.2 mm 2 mps 529 mmHg 56%
14:00 +19°C° 0.2 mm 2 mps 528 mmHg 60%
15:00 +18°C° 0.2 mm 2 mps 527 mmHg 64%
16:00 +16°C° 0.1 mm 2 mps 526 mmHg 74%
17:00 +14°C° 0.1 mm 1 mps 525 mmHg 85%
18:00 +11°C° 0.1 mm 0 mps 524 mmHg 95%
19:00 +11°C° 0.1 mm 0 mps 524 mmHg 95%
20:00 +10°C° 0.1 mm 0 mps 524 mmHg 95%
21:00 +10°C° 0.1 mm 0 mps 525 mmHg 95%
22:00 +10°C° 0 mm 0 mps 525 mmHg 94%
23:00 +11°C° 0 mm 1 mps 525 mmHg 93%

29 September, Tuesday

Time Temperature Precipitation Wind Pressure Humidity
00:00 +10°C° 0 mm 1 mps 525 mmHg 92%
01:00 +10°C° 0 mm 1 mps 524 mmHg 91%
02:00 +10°C° 0 mm 1 mps 524 mmHg 90%
03:00 +9°C° 0 mm 1 mps 523 mmHg 89%
04:00 +9°C° 0 mm 1 mps 523 mmHg 87%
05:00 +9°C° 0 mm 1 mps 523 mmHg 85%
06:00 +9°C° 0 mm 1 mps 523 mmHg 84%
07:00 +11°C° 0 mm 1 mps 525 mmHg 76%
08:00 +14°C° 0 mm 1 mps 527 mmHg 69%
09:00 +18°C° 0 mm 1 mps 529 mmHg 62%
10:00 +19°C° 0 mm 1 mps 529 mmHg 58%
11:00 +19°C° 0 mm 2 mps 529 mmHg 54%
12:00 +20°C° 0 mm 2 mps 529 mmHg 51%
13:00 +19°C° 0.1 mm 2 mps 528 mmHg 56%
14:00 +19°C° 0.1 mm 2 mps 527 mmHg 62%
15:00 +18°C° 0.1 mm 2 mps 526 mmHg 68%
16:00 +16°C° 0.2 mm 2 mps 525 mmHg 77%
17:00 +14°C° 0.2 mm 1 mps 524 mmHg 87%
18:00 +12°C° 0.2 mm 0 mps 523 mmHg 96%
19:00 +11°C° 0.1 mm 0 mps 524 mmHg 96%
20:00 +11°C° 0.1 mm 0 mps 524 mmHg 96%
21:00 +10°C° 0.1 mm 0 mps 524 mmHg 97%
22:00 +10°C° 0.1 mm 0 mps 524 mmHg 96%
23:00 +10°C° 0.1 mm 0 mps 524 mmHg 95%
Show more